Location: Unspecified
(48.5670°N, 0.0000°E)
Time: 11:17:43
(UTC+00:00)

Tiros 1 - Pass Details

Date: 24 October 2020
Orbit: 630 x 664 km, 48.4° (Epoch: 03 December)

Event Time Altitude Azimuth Distance (km) Brightness Sun altitude
Exits shadow 04:08:27 13° 172° (S) 1,836 9.4 -24.7°
Maximum altitude 04:10:43 17° 139° (SE) 1,582 9.5 -24.3°
Drops below altitude 10° 04:13:42 10° 98° (E) 2,007 10.6 -23.8°
Sets 04:16:41 0° 79° (E) 2,919 12.0 -23.3°
